www.pogodaiklimat.ru

Погода и климат >> Архив погоды >> Греция >> Ираклион


ПОГОДА в Ираклионе

  • Прогноз погоды в Ираклионе
  • Монитор погоды в Ираклионе

АРХИВ ПОГОДЫ в Ираклионе

Время (UTC), дата Ветер
(напр.,м/с)
 
Видим.   Явления Облачность Т
(С)
Тd
(С)
f
(%)
Тe
(С)
Тes
(С)
Комфортность P
(гПа)
Po
(гПа)
Тmin
(С)
Tmax
(С)
R
(мм)
R24
(мм)
S
(см)
12 16.09 СЗ 9
{12}
10 км 1/1 600 м
[Cu hum]
+26.0 +13.5 46 +28 +29 жарко 1015.1 1010.6 26
15 16.09 СЗ 7
{11}
10 км ясно +25.4 +12.3 44 +27 +28 жарко 1014.7 1010.2
18 16.09 СЗ 7
{11}
10 км ясно +23.6 +13.8 54 +26 +26 жарко 1015.0 1010.5 +26.2
21 16.09 штиль 0
{9}
10 км ясно +19.6 +12.9 65 +21 +21 комфорт 1015.6 1011.0
00 17.09 Ю 3
{6}
10 км ясно +18.0 +11.9 68 +18 +18 1015.3 1010.6
03 17.09 Ю 3
{6}
10 км ясно +17.4 +13.2 76 +17 +17 1015.0 1010.3
06 17.09 Ю 3
{6}
15 км ясно +22.4 +13.1 56 +25 +28 комфорт 1015.3 1010.7 +16.8 260
09 17.09 С 2
{5}
10 км ясно +26.6 +15.5 51 +30 +44 душно 1015.6 1011.1
12 17.09 С 4
{5}
10 км ясно +27.6 +13.6 42 +29 +38 жарко 1015.1 1010.6 26
15 17.09 СВ 2
{6}
10 км ясно +25.8 +17.2 59 +30 +31 душно 1014.9 1010.3
18 17.09 Ю 2
{4}
10 км ясно +21.2 +16.6 75 +25 +25 комфорт 1015.1 1010.6 +27.6
21 17.09 Ю 4
{5}
10 км ясно +19.0 +13.8 72 +20 +20 1015.1 1010.5
00 18.09 Ю 3
{6}
10 км ясно +17.8 +12.4 71 +18 +18 1014.9 1010.2
03 18.09 Ю 4
{7}
10 км ясно +17.4 +12.0 71 +17 +17 1014.3 1009.6
06 18.09 Ю 4
{7}
15 км ясно +22.0 +9.9 46 +24 +26 комфорт 1014.9 1010.3 +17.2 26 250
09 18.09 СВ 3
{4}
15 км ясно +26.4 +14.9 49 +29 +40 жарко 1015.1 1010.6
12 18.09 В 4
{7}
10 км ясно +26.6 +17.4 57 +31 +39 душно 1015.1 1010.6
15 18.09 СВ 2
{6}
10 км ясно +25.6 +19.1 67 +31 +32 очень
душно
1014.6 1010.0
18 18.09 штиль 0
{4}
10 км ясно +23.0 +18.9 78 +29 +29 очень
душно
1014.9 1010.3 +27.2 26
21 18.09 Ю 3
{5}
10 км ясно +20.6 +17.0 80 +24 +24 комфорт 1015.3 1010.7
00 19.09 Ю 5
{7}
10 км ясно +19.8 +14.7 72 +22 +22 комфорт 1014.9 1010.2
03 19.09 Ю 4
{6}
10 км ясно +19.2 +16.6 85 +21 +21 комфорт 1014.6 1009.9
06 19.09 ЮВ 4
{6}
10 км ясно +22.0 +17.5 76 +27 +28 душно 1014.6 1010.0 +18.6 255
09 19.09 СВ 4
{5}
10 км ясно +27.4 +18.8 59 +32 +42 очень
душно
1014.9 1010.3
12 19.09 С 3
{6}
15 км 1/1 600 м
[Cu hum]
+28.4 +20.3 62 +35 +44 очень
душно
1014.2 1009.6
15 19.09 С 4
{8}
10 км 4/4 600 м
[Cu hum]
+26.0 +21.5 76 +33 +34 очень
душно
1014.3 1009.8
18 19.09 СЗ 5
{10}
10 км 4/4 600 м
[Cu hum]
+24.0 +21.0 83 +30 +30 очень
душно
1014.9 1010.3 +28.4
21 19.09 ЮЗ 2
{8}
10 км 3/3 600 м
[Cu hum]
+22.4 +19.6 84 +28 +28 душно 1015.0 1010.5
00 20.09 Ю 2
{4}
10 км 1/1 600 м
[Cu hum]
+20.0 +18.4 91 +24 +24 комфорт 1015.0 1010.3
03 20.09 Ю 3
{5}
10 км 1/1 600 м
[Cu hum]
+19.4 +17.5 89 +22 +22 комфорт 1014.2 1009.5
06 20.09 Ю 5
{6}
15 км ясно +22.4 +18.3 78 +28 +29 душно 1014.2 1009.6 +19.2 260
09 20.09 С 3
{5}
15 км ясно +26.6 +19.9 67 +33 +44 очень
душно
1014.6 1010.0
12 20.09 СЗ 7
{10}
10 км 1/1 600 м
[Cu hum]
+26.8 +21.1 71 +34 +37 очень
душно
1014.2 1009.6
15 20.09 СЗ 9
{12}
10 км 4/3 600 м
[Cu med, cong Ac trans]
+25.8 +21.3 76 +33 +33 очень
душно
1014.3 1009.8
18 20.09 СЗ 3
{10}
10 км 5/3 750 м
[Cu med, cong Ac trans]
+23.8 +20.5 82 +30 +30 очень
душно
1015.6 1011.1 +27.2
21 20.09 С 4
{8}
10 км 5/3 600 м
[Cu med, cong Ac trans]
+23.4 +20.3 83 +31 +31 очень
душно
1016.3 1011.8
00 21.09 С 6
{9}
10 км 6/4 600 м
[Cu med, cong Ac und]
+22.0 +18.9 83 +27 +27 душно 1016.6 1012.0
03 21.09 СЗ 5
{9}
10 км 6/4 600 м
[Cu med, cong Ac und]
+21.6 +19.1 86 +27 +27 душно 1017.1 1012.6
06 21.09 С 8
{11}
10 км 8/6 600 м
[Cu Sc Ac und]
+22.0 +16.8 72 +26 +26 душно 1018.6 1014.0 +21.6 260
09 21.09 СЗ 7
{10}
10 км 8/8 600 м
[Cu Sc]
+23.6 +16.1 63 +27 +28 жарко 1020.2 1015.6
12 21.09 СЗ 9
{13}
10 км 6/3 600 м
[Cu hum Ac und]
+24.2 +12.0 46 +26 +27 жарко 1019.6 1015.1 25
15 21.09 СЗ 9
{12}
10 км 3/3 600 м
[Cu hum]
+22.8 +11.5 49 +25 +25 комфорт 1019.6 1015.1
18 21.09 СЗ 9
{14}
10 км 4/4 600 м
[Cu hum]
+21.0 +11.3 54 +23 +23 комфорт 1020.2 1015.5 +24.2
21 21.09 СЗ 9
{13}
10 км 4/4 600 м
[Cu hum]
+21.0 +13.0 60 +23 +23 комфорт 1020.2 1015.5
00 22.09 СЗ 10
{13}
10 км 4/4 600 м
[Cu hum]
+21.0 +11.8 56 +23 +23 комфорт 1019.8 1015.1
03 22.09 СЗ 9
{14}
10 км 4/4 600 м
[Cu hum]
+20.4 +10.5 53 +21 +21 комфорт 1019.3 1014.6
06 22.09 СЗ 9
{15}
10 км 3/3 600 м
[Cu hum]
+21.2 +11.1 52 +23 +23 комфорт 1019.8 1015.1 +20.4 260
09 22.09 СЗ 8
{12}
10 км 3/3 600 м
[Cu hum]
+23.0 +12.6 52 +26 +28 жарко 1020.0 1015.5
12 22.09 СЗ 9
{13}
15 км 1/1 600 м
[Cu hum]
+23.0 +11.7 49 +25 +27 комфорт 1019.1 1014.6 25
15 22.09 СЗ 7
{13}
15 км 1/1 600 м
[Cu hum]
+22.4 +11.8 51 +25 +25 комфорт 1018.7 1014.2
18 22.09 СЗ 5
{14}
10 км 1/1 600 м
[Cu hum]
+21.0 +13.0 60 +24 +24 комфорт 1018.6 1013.9 +23.2
21 22.09 СЗ 3
{9}
10 км 1/1 600 м
[Cu hum]
+20.2 +13.2 64 +23 +23 комфорт 1018.6 1013.9
00 23.09 ЮЗ 2
{7}
10 км ясно +19.0 +12.6 66 +21 +21 комфорт 1017.9 1013.3
03 23.09 З 3
{6}
10 км ясно +19.0 +12.6 66 +20 +20 1017.8 1013.1
06 23.09 штиль 0
{6}
10 км 4/0
[Ac trans Ci fib]
+21.6 +14.5 64 +25 +27 комфорт 1017.9 1013.4 +16.6 25 250
09 23.09 С 3
{6}
10 км 1/0
[Ac trans]
+24.6 +15.4 57 +28 +38 душно 1018.2 1013.6

 

Местоположение метеостанции Ираклион (Греция): широта 35.33 долгота 25.18 высота над уровнем моря 39 м.

В архиве по умолчанию представлена погода в Ираклионе за последнюю неделю. Архивные данные за месяц целиком и за предыдущие месяцы, начиная с января 2011 года, Вы можете получить, выбрав интересующий диапазон дат из раскрывающегося списка и нажав кнопку "Ввод!".


*Определитесь, кто Вы:
робот инопланетянин человек

Внимание! Время в таблицах - всемирное. Для получения местного времени необходимо прибавить поправку, которая равна 2 ч.

Смотрите также архив погоды в соседних городах и на ближайших метеорологических станциях:

Погода в Кастели (Греция) (21 км)
Погода в Ситии (Греция) (85 км)
Погода на Суде (Греция) (98 км)
Погода в Касосе (Греция) (157 км)
Погода на Милосе (Греция) (168 км)
Погода в Астипалее (Греция) (176 км)
Погода в Паросе (Греция) (188 км)
Погода в Карпатосе (Греция) (189 км)
Погода на Наксосе (Греция) (198 км)
Погода на Китире (Греция) (222 км)

Пояснения к столбцам:

Ветер - указаны скорость ветра в м/с - средняя за 10 мин, порывы в срок и между сроками (в фигурных скобках) и направление, откуда дует ветер: С - северный, СВ - северо-восточный, В - восточный, ЮВ - юго-восточный, Ю - южный, ЮЗ - юго-западный, З - западный, СЗ - северо-западный.
Видимость - горизонтальная дальность видимости в метрах или километрах. При видимости от 1 до 10 км при отсутствии осадков обычно наблюдается дымка, при ухудшении видимости до 1 км и менее - туман. В сухую погоду видимость может ухудшаться дымом, пылью или мглою.
Явления - указаны атмосферные явления, наблюдавшиеся в срок или в последний час перед сроком; фигурными скобками обозначены явления, наблюдавшиеся между сроками (за 1-3 часа до срока); квадратными скобками обозначены град или гололедные отложения с указанием их диаметра в мм.
Облачность - указаны через наклонную черту общая и нижняя облачность в баллах и высота нижней границы облаков в метрах; квадратными скобками обозначены формы облаков: Ci - перистые, Cs - перисто-слоистые, Cc - перисто-кучевые, Ac - высококучевые, As - высокослоистые, Sc - слоисто-кучевые, Ns - слоисто-дождевые, Cu - кучевые, Cb - кучево-дождевые. Подробнее классификацию облаков см. в Атласе облаков (PDF).
T - Температура воздуха - температура, измеренная на высоте 2 м над землей.
Td - Температура точки росы - температура, при понижении до которой содержащийся в воздухе водяной пар достигнет насыщения.
f - Относительная влажность воздуха - влажноcть воздуха, измеренная на высоте 2 м над землей.
Te - Эффективная температура - температура, которую ощущает одетый по сезону человек в тени. Характеристика душности погоды. При расчете учитывается влияние влажности воздуха и скорости ветра на теплоощущения человека.
Tes - Эффективная температура на солнце - температура, которую ощущает человек, с поправкой на солнечный нагрев. Характеристика знойности погоды. Зависит от высоты солнца над горизонтом, облачности и скорости ветра. Ночью, в пасмурную погоду, а также при ветре 12 м/с и более поправка равна нулю.
P - Атмосферное давление - приведенное к уровню моря атмосферное давление.
Po - Атмосферное давление - измеренное на уровне метеостанции атмосферное давление.
Tmin - Минимальная температура - минимум температуры воздуха на высоте 2 м над землей.
Tmax - Максимальная температура - максимум температуры воздуха на высоте 2 м над землей.
R - Количество осадков - Количество выпавших осадков за период времени, мм. При наведении курсора мыши на число - период времени, за который выпало указанное количество осадков.
R24 - Количество осадков - Количество выпавших осадков за 24 часа, мм.
S - Снежный покров - Высота снежного покрова, см. При наведении курсора мыши на число - состояние снежного покрова и степень покрытия местности в баллах.